This demonstration page uses our WeatherBlox Daily Observations layout. Learn more.

Left ArrowRight Arrow

41.86663, -103.66717

Hourly Observations for December 30, 2020

Temp ( °F °C ) Dew Point ( °F °C ) Humidity (%) Winds ( mph kmh ) Pressure ( in mb ) Visibility ( mi km ) Precip ( " mm )
12:53 am 00:53 Clear 8 -13.3 4 -15.6 83 83 NW 7 11 30.23 1024 10 16 0.00 0.00
1:53 am 01:53 Clear 8 -13.3 3 -16.1 80 80 NNW 8 13 30.23 1024 10 16 0.00 0.00
2:53 am 02:53 Clear 10 -12.2 4 -15.6 76 76 NW 7 11 30.22 1024 10 16 0.00 0.00
3:53 am 03:53 Clear 8 -13.3 2 -16.7 76 76 NW 8 13 30.22 1023 10 16 0.00 0.00
4:53 am 04:53 Clear 9 -12.8 3 -16.1 77 77 NNW 10 17 30.23 1024 10 16 0.00 0.00
5:53 am 05:53 Clear 10 -12.2 3 -16.1 73 73 NNW 9 15 30.25 1024 10 16 0.00 0.00
6:53 am 06:53 Clear 10 -12.2 3 -16.1 73 73 N 3 6 30.26 1025 10 16 0.00 0.00
7:53 am 07:53 Sunny 9 -12.8 2 -16.7 73 73 NW 8 13 30.28 1025 10 16 0.00 0.00
8:53 am 08:53 Sunny 15 -9.4 6 -14.4 67 67 NNW 3 6 30.29 1026 10 16 0.00 0.00
9:53 am 09:53 Sunny 20 -6.7 9 -12.8 62 62 NW 6 9 30.27 1025 10 16 0.00 0.00
10:53 am 10:53 Sunny 22 -5.6 9 -12.8 57 57 NW 6 9 30.26 1025 10 16 0.00 0.00
11:53 am 11:53 Sunny 25 -3.9 10 -12.2 53 53 NW 5 7 30.22 1024 10 16 0.00 0.00
12:53 pm 12:53 Sunny 27 -2.8 12 -11.1 53 53 N 3 6 30.18 1022 10 16 0.00 0.00
1:53 pm 13:53 Sunny 31 -0.6 13 -10.6 47 47 Calm 30.14 1021 10 16 0.00 0.00
2:53 pm 14:53 Sunny 30 -1.1 14 -10 51 51 ESE 3 6 30.14 1021 10 16 0.00 0.00
3:53 pm 15:53 Sunny 26 -3.3 15 -9.4 63 63 E 6 9 30.15 1021 10 16 0.00 0.00
4:53 pm 16:53 Clear 20 -6.7 12 -11.1 71 71 E 6 9 30.16 1021 10 16 0.00 0.00
5:53 pm 17:53 Clear 16 -8.9 8 -13.3 71 71 Calm 30.17 1022 10 16 0.00 0.00
6:53 pm 18:53 Clear 16 -8.9 8 -13.3 71 71 E 3 6 30.16 1021 10 16 0.00 0.00
7:53 pm 19:53 Clear 12 -11.1 5 -15 73 73 Calm 30.16 1022 10 16 0.00 0.00
8:53 pm 20:53 Clear 12 -11.1 5 -15 73 73 E 6 9 30.13 1020 10 16 0.00 0.00
9:53 pm 21:53 Clear 12 -11.1 5 -15 73 73 E 6 9 30.12 1020 10 16 0.00 0.00
10:53 pm 22:53 Clear 12 -11.1 4 -15.6 70 70 ENE 3 6 30.10 1019 10 16 0.00 0.00
11:53 pm 23:53 Clear 12 -11.1 5 -15 73 73 E 3 6 30.08 1019 10 16 0.00 0.00

Powered by AerisWeather